When you browse on this site, cookies collect data to enhance your experience and personalize the content and advertising you see.
Visit our Privacy Policy to learn more. By continuing to use the site, you agree to this use of cookies and data.
  • In Hungary
  • List of Countries
  • For 7 days
  • Water Temperature
  • Satellite Maps
  • Weather Map
  • News
  • Weather Widgets
  • user-avatar
    Login

    Hourly Weather Cajamarca

    Today, 17 November, Saturday

    Time Temperature Precipitation Wind Pressure Humidity
    00:00 +12°C° 0.8 mm 1 mps 544 mmHg 86%
    01:00 +12°C° 0.8 mm 1 mps 543 mmHg 87%
    02:00 +12°C° 0.9 mm 1 mps 543 mmHg 87%
    03:00 +12°C° 0.9 mm 1 mps 543 mmHg 86%
    04:00 +12°C° 0.9 mm 1 mps 543 mmHg 86%
    05:00 +12°C° 1 mm 1 mps 544 mmHg 84%
    06:00 +13°C° 1 mm 1 mps 544 mmHg 81%
    07:00 +13°C° 1 mm 1 mps 544 mmHg 79%
    08:00 +14°C° 0.5 mm 1 mps 545 mmHg 74%
    09:00 +16°C° 0.5 mm 1 mps 546 mmHg 68%
    10:00 +17°C° 0.5 mm 2 mps 547 mmHg 62%
    11:00 +18°C° 0.6 mm 2 mps 547 mmHg 62%
    12:00 +18°C° 0.6 mm 2 mps 547 mmHg 61%
    13:00 +18°C° 0.6 mm 2 mps 547 mmHg 61%
    14:00 +18°C° 1 mm 2 mps 546 mmHg 64%
    15:00 +17°C° 1 mm 2 mps 545 mmHg 66%
    16:00 +17°C° 1 mm 2 mps 545 mmHg 69%
    17:00 +16°C° 0.7 mm 2 mps 544 mmHg 75%
    18:00 +15°C° 0.7 mm 1 mps 544 mmHg 80%
    19:00 +14°C° 0.7 mm 1 mps 543 mmHg 85%
    20:00 +14°C° 0.3 mm 1 mps 544 mmHg 86%
    21:00 +14°C° 0.3 mm 1 mps 544 mmHg 87%
    22:00 +13°C° 0.3 mm 1 mps 544 mmHg 87%
    23:00 +13°C° 0.4 mm 1 mps 544 mmHg 88%

    Tomorrow, 18 November, Sunday

    Time Temperature Precipitation Wind Pressure Humidity
    00:00 +12°C° 0.4 mm 0 mps 544 mmHg 89%
    01:00 +11°C° 0.4 mm 0 mps 543 mmHg 89%
    02:00 +11°C° 0.5 mm 0 mps 543 mmHg 89%
    03:00 +11°C° 0.5 mm 0 mps 543 mmHg 89%
    04:00 +11°C° 0.5 mm 0 mps 543 mmHg 89%
    05:00 +11°C° 0.4 mm 0 mps 543 mmHg 86%
    06:00 +12°C° 0.4 mm 0 mps 544 mmHg 84%
    07:00 +13°C° 0.4 mm 1 mps 544 mmHg 81%
    08:00 +15°C° 0.4 mm 1 mps 545 mmHg 74%
    09:00 +17°C° 0.4 mm 2 mps 546 mmHg 67%
    10:00 +18°C° 0.4 mm 2 mps 547 mmHg 60%
    11:00 +18°C° 1.1 mm 3 mps 547 mmHg 61%
    12:00 +18°C° 1.1 mm 3 mps 546 mmHg 63%
    13:00 +18°C° 1.1 mm 3 mps 546 mmHg 64%
    14:00 +18°C° 1.8 mm 3 mps 545 mmHg 67%
    15:00 +17°C° 1.8 mm 3 mps 545 mmHg 71%
    16:00 +16°C° 1.8 mm 2 mps 544 mmHg 74%
    17:00 +15°C° 2.7 mm 2 mps 544 mmHg 78%
    18:00 +15°C° 2.7 mm 2 mps 544 mmHg 82%
    19:00 +14°C° 2.7 mm 1 mps 544 mmHg 86%
    20:00 +14°C° 1.5 mm 1 mps 544 mmHg 86%
    21:00 +13°C° 1.5 mm 1 mps 544 mmHg 86%
    22:00 +13°C° 1.5 mm 1 mps 545 mmHg 86%
    23:00 +13°C° 0.6 mm 1 mps 545 mmHg 87%

    Day after tomorrow, 19 November, Monday

    Time Temperature Precipitation Wind Pressure Humidity
    00:00 +13°C° 0.6 mm 1 mps 544 mmHg 88%
    01:00 +12°C° 0.6 mm 0 mps 544 mmHg 89%
    02:00 +11°C° 0.6 mm 0 mps 543 mmHg 89%
    03:00 +11°C° 0.6 mm 0 mps 543 mmHg 90%
    04:00 +11°C° 0.6 mm 0 mps 543 mmHg 91%
    05:00 +11°C° 0.5 mm 0 mps 543 mmHg 88%
    06:00 +13°C° 0.5 mm 1 mps 544 mmHg 86%
    07:00 +13°C° 0.5 mm 1 mps 544 mmHg 83%
    08:00 +14°C° 0.6 mm 1 mps 545 mmHg 78%
    09:00 +15°C° 0.6 mm 2 mps 546 mmHg 73%
    10:00 +16°C° 0.6 mm 2 mps 546 mmHg 68%
    11:00 +16°C° 1.6 mm 2 mps 546 mmHg 70%
    12:00 +16°C° 1.6 mm 2 mps 545 mmHg 71%
    13:00 +16°C° 1.6 mm 2 mps 545 mmHg 72%
    14:00 +15°C° 2.6 mm 2 mps 544 mmHg 75%
    15:00 +15°C° 2.6 mm 2 mps 543 mmHg 78%
    16:00 +14°C° 2.6 mm 2 mps 543 mmHg 81%
    17:00 +14°C° 2 mm 1 mps 543 mmHg 83%
    18:00 +13°C° 2 mm 1 mps 543 mmHg 84%
    19:00 +13°C° 2 mm 1 mps 543 mmHg 86%
    20:00 +13°C° 1.4 mm 1 mps 544 mmHg 87%
    21:00 +12°C° 1.4 mm 1 mps 544 mmHg 87%
    22:00 +12°C° 1.4 mm 1 mps 545 mmHg 88%
    23:00 +12°C° 0.8 mm 1 mps 544 mmHg 88%

    20 November, Tuesday

    Time Temperature Precipitation Wind Pressure Humidity
    00:00 +12°C° 0.8 mm 1 mps 544 mmHg 89%
    01:00 +12°C° 0.8 mm 1 mps 544 mmHg 89%
    02:00 +12°C° 0.3 mm 1 mps 543 mmHg 89%
    03:00 +12°C° 0.3 mm 1 mps 543 mmHg 89%
    04:00 +11°C° 0.3 mm 1 mps 543 mmHg 90%
    05:00 +12°C° 0.1 mm 1 mps 543 mmHg 88%
    06:00 +12°C° 0.1 mm 1 mps 544 mmHg 86%
    07:00 +11°C° 0.1 mm 0 mps 544 mmHg 85%
    08:00 +13°C° 0.1 mm 1 mps 545 mmHg 79%
    09:00 +15°C° 0.1 mm 1 mps 546 mmHg 73%
    10:00 +16°C° 0.1 mm 1 mps 547 mmHg 67%
    11:00 +16°C° 0.1 mm 2 mps 546 mmHg 66%
    12:00 +16°C° 0.1 mm 2 mps 546 mmHg 66%
    13:00 +17°C° 0.1 mm 2 mps 546 mmHg 65%
    14:00 +16°C° 0.3 mm 2 mps 545 mmHg 67%
    15:00 +16°C° 0.3 mm 2 mps 544 mmHg 70%
    16:00 +15°C° 0.3 mm 2 mps 544 mmHg 73%
    17:00 +15°C° 0.2 mm 2 mps 544 mmHg 76%
    18:00 +14°C° 0.2 mm 1 mps 544 mmHg 80%
    19:00 +13°C° 0.2 mm 1 mps 544 mmHg 83%
    20:00 +13°C° 0.1 mm 1 mps 544 mmHg 84%
    21:00 +13°C° 0.1 mm 1 mps 544 mmHg 85%
    22:00 +12°C° 0.1 mm 0 mps 545 mmHg 85%
    23:00 +11°C° 0.1 mm 0 mps 544 mmHg 86%

    21 November, Wednesday

    Time Temperature Precipitation Wind Pressure Humidity
    00:00 +12°C° 0.1 mm 1 mps 544 mmHg 86%
    01:00 +12°C° 0.1 mm 1 mps 544 mmHg 86%
    02:00 +11°C° 0.2 mm 1 mps 543 mmHg 86%
    03:00 +11°C° 0.2 mm 1 mps 543 mmHg 86%
    04:00 +11°C° 0.2 mm 1 mps 543 mmHg 86%
    05:00 +11°C° 0.1 mm 1 mps 543 mmHg 81%
    06:00 +12°C° 0.1 mm 1 mps 544 mmHg 76%
    07:00 +12°C° 0.1 mm 1 mps 544 mmHg 71%
    08:00 +14°C° 0 mm 1 mps 545 mmHg 61%
    09:00 +15°C° 0 mm 1 mps 546 mmHg 52%
    10:00 +18°C° 0 mm 1 mps 548 mmHg 43%
    11:00 +17°C° 0 mm 2 mps 547 mmHg 43%
    12:00 +18°C° 0 mm 2 mps 547 mmHg 42%
    13:00 +18°C° 0 mm 3 mps 547 mmHg 42%
    14:00 +17°C° 0.1 mm 3 mps 546 mmHg 46%
    15:00 +17°C° 0.1 mm 2 mps 545 mmHg 50%
    16:00 +16°C° 0.1 mm 2 mps 544 mmHg 55%
    17:00 +15°C° 0 mm 2 mps 544 mmHg 61%
    18:00 +14°C° 0 mm 1 mps 544 mmHg 67%
    19:00 +13°C° 0 mm 1 mps 544 mmHg 73%
    20:00 +12°C° 0 mm 1 mps 544 mmHg 74%
    21:00 +12°C° 0 mm 1 mps 544 mmHg 75%
    22:00 +12°C° 0 mm 1 mps 544 mmHg 76%
    23:00 +11°C° 0 mm 1 mps 544 mmHg 74%

    22 November, Thursday

    Time Temperature Precipitation Wind Pressure Humidity
    00:00 +11°C° 0 mm 1 mps 543 mmHg 71%
    01:00 +11°C° 0 mm 1 mps 543 mmHg 69%
    02:00 +10°C° 0 mm 1 mps 542 mmHg 63%
    03:00 +10°C° 0 mm 1 mps 542 mmHg 57%
    04:00 +10°C° 0 mm 1 mps 542 mmHg 51%
    05:00 +10°C° 0 mm 1 mps 542 mmHg 46%
    06:00 +11°C° 0 mm 1 mps 543 mmHg 41%
    07:00 +12°C° 0 mm 1 mps 544 mmHg 37%
    08:00 +14°C° 0 mm 1 mps 545 mmHg 32%
    09:00 +16°C° 0 mm 1 mps 546 mmHg 27%
    10:00 +18°C° 0 mm 1 mps 547 mmHg 23%
    11:00 +18°C° 0 mm 2 mps 547 mmHg 23%
    12:00 +19°C° 0 mm 2 mps 547 mmHg 24%
    13:00 +20°C° 0 mm 3 mps 547 mmHg 25%
    14:00 +19°C° 0 mm 3 mps 546 mmHg 28%
    15:00 +19°C° 0 mm 3 mps 545 mmHg 32%
    16:00 +19°C° 0 mm 3 mps 545 mmHg 36%
    17:00 +16°C° 0 mm 3 mps 544 mmHg 45%
    18:00 +14°C° 0 mm 2 mps 543 mmHg 54%
    19:00 +11°C° 0 mm 1 mps 542 mmHg 64%
    20:00 +11°C° 0 mm 1 mps 542 mmHg 63%
    21:00 +10°C° 0 mm 1 mps 542 mmHg 63%
    22:00 +9°C° 0 mm 1 mps 542 mmHg 63%
    23:00 +9°C° 0 mm 1 mps 541 mmHg 53%
    Show more